Regional Weather Roundup
Issued by NWS

Home | Current Version | Previous Version | Text Only | Print | Product List | Glossary Off
Versions: 1 2 3 4 5 6 7 8 9 10 11 12 13 14 15 16 17 18 19 20 21 22 23 24 25 26 27 28 29 30 31 32 33 34 35 36 37 38 39 40 41 42 43 44 45 46 47 48 49 50

000
ASUS45 KTFX 020110
RWRMT
MONTANA REGIONAL WEATHER ROUNDUP
NATIONAL WEATHER SERVICE GREAT FALLS MT
700 PM MDT WED JUL 01 2015

NOTE: "FAIR" INDICATES FEW OR NO CLOUDS BELOW 12000 FEET WITH NO
SIGNIFICANT WEATHER AND/OR OBSTRUCTIONS TO VISIBILITY.

MTZ001>007-043-020200-
WEST OF THE DIVIDE

CITY           SKY/WX    TMP DP  RH WIND       PRES   REMARKS
KALISPELL      CLEAR     88  46  23 S6        29.97S
MISSOULA       SUNNY     93  39  15 NW13      29.97F
BUTTE          SUNNY     85  35  16 NW12G23   30.13S
MULLAN PASS    SUNNY     76  43  30 CALM      30.22F
DEER LODGE       N/A     86  43  22 NW12      30.11S
EUREKA           N/A     90  46  22 CALM      29.98S
HAMILTON         N/A     90  46  22 N6        30.00S
PLAINS           N/A     95  48  20 W8        29.96S HX  91
RONAN            N/A     90  51  26 CALM      30.02F
THOMPSON FALLS   N/A     93  43  17 W9        29.98S
$$

MTZ008-052>055-020200-
SOUTHWEST MONTANA

CITY           SKY/WX    TMP DP  RH WIND       PRES   REMARKS
BOZEMAN        SUNNY     89  42  19 N6        30.03F
DILLON         MOSUNNY   90  44  20 E5        30.07S
W YELLOWSTONE  MOSUNNY   82  32  16 NW10G16   30.18S
THREE FORKS      N/A     90  39  16 E6        30.02S
TWIN BRIDGES     N/A     91  45  20 NW9       30.04S
$$

MTZ009-010-012-014-046-048-049-054-020200-
EAST SLOPES AND CENTRAL MONTANA

CITY           SKY/WX    TMP DP  RH WIND       PRES   REMARKS
CUT BANK       MOSUNNY   76  51  41 N15G22    30.13R
GREAT FALLS    SUNNY     79  52  38 NE13      30.09R
MALMSTROM AFB  SUNNY     80  51  37 N16G23    30.08S
HELENA         SUNNY     87  52  29 N14       30.02R
CONRAD           N/A     76  62  61 N9        30.13S
$$

MTZ011-013-016-021-045-047-050-051-020200-
NORTH CENTRAL MONTANA

CITY           SKY/WX    TMP DP  RH WIND       PRES   REMARKS
HAVRE          SUNNY     82  50  32 NW17G24   30.02S
LEWISTOWN      MOSUNNY   74  56  53 SE8       30.11R
CHINOOK          N/A     81  54  39 NE7       30.00F
FORT BENTON      N/A     81  55  41 NW9       30.05R
$$

MTZ017>020-022>027-061-062-020200-
NORTHEAST MONTANA

CITY           SKY/WX    TMP DP  RH WIND       PRES   REMARKS
GLASGOW        PTSUNNY   72  50  45 N21G30    30.00R
JORDAN           N/A     82  54  37 N14       29.98F
SIDNEY         CLOUDY    75  59  57 N7        29.95F
WOLF POINT     CLOUDY    67  59  75 E6        29.98F
MALTA            N/A     74  55  51 W12       29.98R
PLENTYWOOD       N/A     72  63  73 W12       29.97F
POPLAR           N/A     64  61  88 E5        29.97F
SCOBEY           N/A     65  58  78 S2        30.00R
$$

MTZ028>42-056>058-020200-
SOUTHCENTRAL AND SOUTHEAST MONTANA

CITY           SKY/WX    TMP DP  RH WIND       PRES   REMARKS
BAKER          PTSUNNY   77  60  55 E10       29.97F
BILLINGS       MOSUNNY   84  51  31 NE20      30.01R
LIVINGSTON     SUNNY     89  42  19 N10       30.04S
MILES CITY     LGT RAIN  80  60  50 N7        29.96R
FORSYTH          N/A     70  63  78 NE8       30.00R
LAUREL           N/A     84  50  30 N15       29.99R
ROUNDUP          N/A     74  57  55 N17       29.97R
$$

REGIONAL REPORTS...DAKOTAS

CITY           SKY/WX    TMP DP  RH WIND       PRES   REMARKS
WILLISTON      CLOUDY    75  58  55 NW3       29.96R HAZE
MINOT          MOSUNNY   72  63  73 N6        29.93S
DICKINSON      PTSUNNY   72  61  68 CALM      29.96F
BEACH          RAIN      68  68 100 N3        30.01R
CROSBY         FAIR      70  70 100 CALM      29.97R FOG
BISMARCK       CLOUDY    74  67  78 E6        29.94R
GRAND FORKS    MOSUNNY   75  63  66 S5        29.92S HAZE
FARGO          SUNNY     72  56  57 S10       29.94F
BUFFALO SD       N/A     75  63  66 NE10      29.92F
RAPID CITY     SUNNY     78  65  63 NE12      29.99R
$$

REGIONAL REPORTS...WYOMING/IDAHO/WASHINGTON

CITY           SKY/WX    TMP DP  RH WIND       PRES   REMARKS
GILLETTE       MOSUNNY   77  55  46 E12       30.03S
SHERIDAN       MOSUNNY   84  55  36 W6        29.99F
BUFFALO WY     MOSUNNY   81  53  37 N7        30.08R
CODY           MOSUNNY   81  52  36 N14       30.07S
YELLOWSTONE LA   N/A     78  33  19 W7        30.29F
IDAHO FALLS    SUNNY     91  49  23 S8        30.02F
SALMON         SUNNY     93  41  16 N10G23    29.93S
BOISE          MOSUNNY  101  41  12 NW12      29.90F HX  96
SPOKANE        MOSUNNY   93  41  16 NW8       29.95F
$$

REGIONAL REPORTS...ALBERTA

CITY           SKY/WX    TMP DP  RH WIND       PRES   REMARKS
EDMONTON       MOSUNNY   75  55  50 NW10G18   30.04S
CALGARY        PTSUNNY   73  54  49 N14       30.15R
LETHBRIDGE     MOSUNNY   75  54  46 NW10G18   30.11S
MEDICINE HAT   PTSUNNY   77  55  47 NW15      30.03R
CARDSTON         N/A     70  57  64 N6          N/A
MILK RIVER       N/A     73  52  46 N15G22      N/A
ONEFOUR          N/A     75  52  43 NW22G29     N/A
$$

REGIONAL REPORTS...SASKATCHEWAN

CITY           SKY/WX    TMP DP  RH WIND       PRES   REMARKS
SWIFT CURRENT  CLOUDY    66  59  77 W14G20    30.01R
REGINA         CLOUDY    73  63  68 N3        29.95S
SASKATOON      PTSUNNY   72  61  68 N6        29.96S
CYPRESS HILLS    N/A     66  52  59 NW5         N/A
VAL MARIE        N/A     61  57  88 N12         N/A
$$


USA.gov is the U.S. government's official web portal to all federal, state and local government web resources and services.